STARLINK-36802, 67985

Orbit data source: Space-Track

STARLINK-36802, 67985 is a payload satellite owned by SpaceX/Seattle (US) in SSO that was launched on Wed, 25 Feb 2026 UTC via an FALCON 9 launch vehicle from the Air Force Western Test Range (AFWTR). Payload-class satellites include a variety of spacecraft equipped with specific instruments for various scientific and technological missions. These include communications satellites like Starlink; space stations such as the ISS; scientific satellites like the Hubble; Earth observation satellites from companies like Planet Labs, Umbra, and HawkEye 360; GPS; miniature CubeSats for education and research; and military/defense satellites.

Loading next visibility...
Identifier
67985, 2026-038AA
Orbit
SSO
Country
Flag of USUS
Related business
Manufacturer
SpaceX/Seattle
Mission
Operational Commercial Communications
Bus & Motor
STARLINK V2MO, Unknown motor
Mass
575 kg wet, ~530 kg dry
Launch date (UTC)
2026-02-25 (4 months ago)
Launch vehicle
FALCON 9
Launch site
Air Force Western Test Range (AFWTR)
Object type
Payload
Rocket body
Debris
Shape & HBR
Box + 2 Pan, 17.7 m
Radar Cross Section
36.964 m², Large (>1 m²)

Expand to show TLE details & history
Last TLE update: 22 hours ago

TLE from 22 hours ago
0 STARLINK-36802
1 67985U 26038AA  26170.99697456  .00025315  00000-0  78335-3 0  9990
2 67985  97.2839 181.5094 0001812  90.5184 269.6266 15.33463563 18973
Epoch: 2026-06-19T23:55Z
TLE epoch observation values (Epoch: 2026-06-19T23:55:38.601Z)
Latitude
-0.00009°
Longitude
-85.61936°
Altitude
468.608 km
Speed
7.632 km/s
True Right ascension
12h 06m 02s
True Declination
0° 00' 00"
Sunlit
Object was in daylight at epoch
Visualization orbit readout
Latitude
Unknown
Longitude
Unknown
Altitude
Unknown
Speed
Unknown
Apparent Right ascension
Unknown
Apparent Declination
Unknown
Sunlit
N/A
Visualization observer readout
Local Sidereal Time
08:33:00
Azimuth
Unknown
Elevation
Unknown
Doppler factor
Unknown
Orbital elements
Apogee altitude
463.67 km
Perigee altitude
461.191 km
Semi-major axis
6,840.568 km
Eccentricity
0.00018
Inclination
97.2839°
RAAN
181.5094°
Arg. of periapsis
90.5184°
True anomaly
269.60584°
Mean anomaly
269.6266°
Eccentric anomaly
269.61622°
Mean motion
3.83623 °/min
Orbital period
93.84 mins
BSTAR
0.00078335
Loading maneuver chart data...
Computing Atmospheric mass density...
Loading historical data...
Loading historical data...
Loading historical data...
Loading historical data...
Loading historical data...
Loading historical data...
Loading historical data...

Documentation

Showing up to 5 results
|